EZY9T EINN-EGAA

Flight info

Callsign EZY9T
Flight time 0h 34m
Altitude 21000
Route AGINI3A AGINI DCT ERNAN DCT BELZU
Aircraft A319/M-SDE3FGHIRWY/LB1

Departure

Time 2026-04-30 18:32
Airport Shannon Airport (EINN)

Arrival

Time 2026-04-30 19:06
Airport Belfast International Airport (EGAA)
Time Latitude Longitude Altitude Speed Heading
2026-04-30 18:32 52.80076 -8.80989 7840 ft 295 kts 24°
2026-04-30 18:32 52.81994 -8.79767 8961 ft 303 kts 24°
2026-04-30 18:32 52.86067 -8.77132 10821 ft 332 kts 25°
2026-04-30 18:33 52.88247 -8.75716 11801 ft 341 kts 25°
2026-04-30 18:33 52.92739 -8.72816 13960 ft 352 kts 26°
2026-04-30 18:33 52.95038 -8.71333 14899 ft 358 kts 26°
2026-04-30 18:34 52.97378 -8.69822 15850 ft 363 kts 26°
2026-04-30 18:34 53.02150 -8.66728 17731 ft 373 kts 26°
2026-04-30 18:34 53.04586 -8.65137 18598 ft 378 kts 26°
2026-04-30 18:35 53.07047 -8.63525 19414 ft 383 kts 26°
2026-04-30 18:35 53.09540 -8.61891 20244 ft 387 kts 26°
2026-04-30 18:35 53.12063 -8.60235 20814 ft 392 kts 26°
2026-04-30 18:36 53.17003 -8.56481 21069 ft 386 kts 37°
2026-04-30 18:36 53.19257 -8.54159 21072 ft 386 kts 37°
2026-04-30 18:36 53.23826 -8.49459 21072 ft 386 kts 37°
2026-04-30 18:37 53.26112 -8.47112 21075 ft 386 kts 37°
2026-04-30 18:37 53.28397 -8.44763 21074 ft 386 kts 37°
2026-04-30 18:37 53.30680 -8.42410 21083 ft 386 kts 37°
2026-04-30 18:37 53.32961 -8.40050 21083 ft 386 kts 37°
2026-04-30 18:38 53.35243 -8.37690 21079 ft 386 kts 37°
2026-04-30 18:38 53.37528 -8.35328 21080 ft 386 kts 37°
2026-04-30 18:38 53.39812 -8.32962 21081 ft 386 kts 37°
2026-04-30 18:38 53.42093 -8.30596 21084 ft 385 kts 37°
2026-04-30 18:39 53.44373 -8.28226 21080 ft 386 kts 37°
2026-04-30 18:39 53.46658 -8.25852 21068 ft 387 kts 37°
2026-04-30 18:39 53.48951 -8.23465 21087 ft 388 kts 37°
2026-04-30 18:39 53.51241 -8.21074 21088 ft 388 kts 37°
2026-04-30 18:40 53.53536 -8.18681 21085 ft 388 kts 37°
2026-04-30 18:40 53.55826 -8.16291 21085 ft 388 kts 37°
2026-04-30 18:40 53.58118 -8.13891 21091 ft 388 kts 37°
2026-04-30 18:40 53.60406 -8.11492 21090 ft 388 kts 37°
2026-04-30 18:41 53.62699 -8.09083 21092 ft 388 kts 37°
2026-04-30 18:41 53.64988 -8.06674 21091 ft 388 kts 37°
2026-04-30 18:41 53.67276 -8.04263 21092 ft 388 kts 37°
2026-04-30 18:41 53.69563 -8.01850 21097 ft 388 kts 37°
2026-04-30 18:42 53.71851 -7.99437 21096 ft 388 kts 37°
2026-04-30 18:42 53.76418 -7.94604 21095 ft 387 kts 38°
2026-04-30 18:42 53.78698 -7.92185 21098 ft 387 kts 38°
2026-04-30 18:45 54.01522 -7.67832 21106 ft 389 kts 37°
2026-04-30 18:45 54.03808 -7.65375 21105 ft 389 kts 37°
2026-04-30 18:45 54.06096 -7.62909 21106 ft 389 kts 37°
2026-04-30 18:46 54.08386 -7.60445 21110 ft 389 kts 37°
2026-04-30 18:46 54.10681 -7.57973 21110 ft 389 kts 37°
2026-04-30 18:46 54.12966 -7.55507 21108 ft 389 kts 37°
2026-04-30 18:46 54.15223 -7.53062 21109 ft 389 kts 37°
2026-04-30 18:47 54.17507 -7.50587 21111 ft 389 kts 38°
2026-04-30 18:47 54.19788 -7.48107 21111 ft 389 kts 38°
2026-04-30 18:47 54.22072 -7.45616 21111 ft 389 kts 38°
2026-04-30 18:47 54.24355 -7.43130 21098 ft 389 kts 37°
2026-04-30 18:48 54.26589 -7.40532 21106 ft 385 kts 44°
2026-04-30 18:48 54.28445 -7.37288 21109 ft 379 kts 57°
2026-04-30 18:48 54.29859 -7.33535 21113 ft 373 kts 67°
2026-04-30 18:48 54.31105 -7.29636 21110 ft 374 kts 66°
2026-04-30 18:49 54.32387 -7.25750 21112 ft 375 kts 66°
2026-04-30 18:49 54.33688 -7.21879 21112 ft 375 kts 65°
2026-04-30 18:49 54.34994 -7.18018 21111 ft 375 kts 65°
2026-04-30 18:49 54.36299 -7.14155 21110 ft 375 kts 65°
2026-04-30 18:50 54.37597 -7.10284 21109 ft 374 kts 66°
2026-04-30 18:50 54.38888 -7.06408 21108 ft 374 kts 66°
2026-04-30 18:50 54.40163 -7.02561 21112 ft 374 kts 66°
2026-04-30 18:50 54.41451 -6.98672 21112 ft 374 kts 66°
2026-04-30 18:51 54.42737 -6.94788 21083 ft 374 kts 66°
2026-04-30 18:51 54.43994 -6.91002 20929 ft 357 kts 66°
2026-04-30 18:51 54.45205 -6.87350 20421 ft 349 kts 66°
2026-04-30 18:51 54.46395 -6.83742 19853 ft 345 kts 66°
2026-04-30 18:52 54.47447 -6.80536 19344 ft 342 kts 67°
2026-04-30 18:52 54.48609 -6.76988 18778 ft 338 kts 67°
2026-04-30 18:52 54.49760 -6.73464 18199 ft 336 kts 67°
2026-04-30 18:52 54.50900 -6.69978 17585 ft 333 kts 67°
2026-04-30 18:53 54.52035 -6.66509 17002 ft 330 kts 67°
2026-04-30 18:53 54.53158 -6.63079 16428 ft 327 kts 67°
2026-04-30 18:53 54.54264 -6.59691 15765 ft 323 kts 67°
2026-04-30 18:53 54.55349 -6.56363 15135 ft 320 kts 67°
2026-04-30 18:54 54.56432 -6.53028 14530 ft 317 kts 68°
2026-04-30 18:54 54.57504 -6.49727 13926 ft 314 kts 68°
2026-04-30 18:54 54.58566 -6.46452 13260 ft 311 kts 68°
2026-04-30 18:54 54.59611 -6.43218 12560 ft 308 kts 68°
2026-04-30 18:55 54.60647 -6.40014 11914 ft 304 kts 67°
2026-04-30 18:55 54.62679 -6.33720 10822 ft 290 kts 67°
2026-04-30 18:55 54.63632 -6.30789 10613 ft 273 kts 67°
2026-04-30 18:56 54.65366 -6.25857 9617 ft 274 kts 50°
2026-04-30 18:56 54.67038 -6.24257 9034 ft 281 kts 13°
2026-04-30 18:56 54.68974 -6.24457 8429 ft 281 kts 345°
2026-04-30 18:57 54.72701 -6.26515 7126 ft 280 kts 340°
2026-04-30 18:57 54.74511 -6.27619 6678 ft 271 kts 340°
2026-04-30 18:57 54.76210 -6.28881 6205 ft 262 kts 326°
2026-04-30 18:58 54.78297 -6.33643 5392 ft 241 kts 292°
2026-04-30 18:58 54.79021 -6.36170 5053 ft 233 kts 292°
2026-04-30 18:58 54.79745 -6.38675 4710 ft 227 kts 292°
2026-04-30 18:59 54.81635 -6.42684 4392 ft 214 kts 333°
2026-04-30 19:00 54.85450 -6.40845 4043 ft 196 kts 62°
2026-04-30 19:00 54.85915 -6.38713 3955 ft 185 kts 87°
2026-04-30 19:00 54.85258 -6.34711 3788 ft 172 kts 132°
2026-04-30 19:01 54.83236 -6.32718 3639 ft 169 kts 161°
2026-04-30 19:01 54.82117 -6.32082 3529 ft 169 kts 161°
2026-04-30 19:02 54.79883 -6.30815 3119 ft 169 kts 161°
2026-04-30 19:02 54.77661 -6.29557 2681 ft 167 kts 160°
2026-04-30 19:03 54.75487 -6.28328 2238 ft 161 kts 160°
2026-04-30 19:03 54.73400 -6.27151 1816 ft 147 kts 159°
2026-04-30 19:04 54.71746 -6.26220 1476 ft 115 kts 157°
2026-04-30 19:04 54.70254 -6.25376 1166 ft 111 kts 159°
2026-04-30 19:05 54.69032 -6.24687 920 ft 111 kts 158°
2026-04-30 19:05 54.67583 -6.23864 661 ft 110 kts 158°
2026-04-30 19:06 54.66130 -6.23058 375 ft 108 kts 157°
2026-04-30 19:06 54.65435 -6.22664 274 ft 91 kts 161°
2026-04-30 19:06 54.65074 -6.22458 275 ft 2 kts 53°
2026-04-30 19:07 54.65226 -6.22545 275 ft 18 kts 343°
2026-04-30 19:07 54.65351 -6.22615 274 ft 20 kts 340°
2026-04-30 19:08 54.65635 -6.22775 276 ft 22 kts 341°
2026-04-30 19:08 54.65754 -6.22464 275 ft 11 kts 83°
2026-04-30 19:08 54.65755 -6.22452 272 ft 0 kts 82°
2026-04-30 19:09 54.65757 -6.22424 272 ft 7 kts 82°
2026-04-30 19:09 54.65767 -6.22282 277 ft 14 kts 83°
2026-04-30 19:10 54.65847 -6.21900 273 ft 20 kts 65°
2026-04-30 19:10 54.65936 -6.21568 273 ft 8 kts 64°
2026-04-30 19:11 54.65975 -6.21486 272 ft 10 kts 13°
2026-04-30 19:11 54.66065 -6.21547 272 ft 3 kts 335°
2026-04-30 19:11 54.66071 -6.21551 272 ft 0 kts 335°